Situated in Leqing, Wenzhou in the southeast of Zhejiang Province, Yandang Mountain is one of the 10 famous mountains in China. It is spends four and half hours from there to Shanghai by train.
Yandang Mountain, which was formed 120 million years ago, is a typical ancient rhyolitic volcano of the Cr...
China sets sail for the Arctic
A Chinese research vessel and ice-breaker is due to set sail this week for the Arctic, a region much coveted by Beijing for its wealth of scientific data and natural resources.
The shrinking of the frozen sheets blanketing the Arctic -- thanks to global warming -- are...
Title: Centimetre Imaging of the R Coronae Australis Region Authors: Minho Choi, Kenji Hamaguchi, Jeong-Eun Lee, Ken'ichi Tatematsu The R CrA region was observed in the 3.5 and 6.2 cm continuum with high angular resolutions (0.6--1.7 arcseconds) using the Very Large Array. Archival data sets we...
"The Gallery of Creation" Museum by Joseph Hurt Studio to be Liquidated at Public Auction
Higgenbotham Auctioneers International (HAI) announced recently that they have been engaged to liquidate the "Gallery of Creation" Museum created by Joseph Hurt Studio, Inc. The m...
60th Lindau Nobel Laureate Meeting
The annual Lindau Nobel Laureate Meetings provide a globally recognised forum for the transfer of knowledge between generations of scientists. They inspire and motivate Nobel Laureates and international Best Talents. Lectures of Nobel Laureates reflect...
Orbital elements:
2005 YW36
Epoch 2010 July 23.0 TT = JDT 2455400.5 MPC
M 329.33133 (2000.0) P Q
n 0.20030424 Peri. 207.02732 +0.81106165 -0.58144853
a 2.8929613 Node 189.35340 +0.58214378 +0.81303478
e 0.5382633 Incl. 23.19230 +0.05733779 -0.02986747
P 4.92 H 17.7 G 0.15 U 0
[url=http...
Orbital elements:
2010 MN51 Earth MOID = 0.3314 AU
Epoch 2010 July 23.0 TT = JDT 2455400.5 MPC
M 53.25831 (2000.0) P Q
n 0.48282484 Peri. 115.18899 -0.16673953 +0.91639454
a 1.6091986 Node 139.31353 -0.97784046 -0.20107012
e 0.2443600 Incl. 33.93064 +0.12659373 -0.34610960 P 2.04 H 18.2...
The University of Leicester's sports ground in Oadby becomes a miniature Cape Kennedy today as teams from schools around the country compete in the final of the UK Aerospace Youth Rocketry Challenge (UKAYRoC).
The challenge, open to teams of students between the ages of 11 and 18, is to design, con...
Orbital elements: 2010 JH110 Earth MOID = 0.0186 AU Epoch 2010 July 23.0 TT = JDT 2455400.5 MPC M 18.11271 (2000.0) P Q n 0.27469767 Peri. 165.54090 -0.53772629 +0.84302403 a 2.3436859 Node 71.92867 -0.77486627 -0.48820930 e 0.5605345 Incl. 0.76457 -0.33231416 -0.22574802 P 3.59 H 26.2 G 0.15 U 6 [...
Orbital elements: 2010 LD64 Earth MOID = 0.0700 AU Epoch 2010 July 23.0 TT = JDT 2455400.5 MPC M 13.91500 (2000.0) P Q n 0.23823268 Peri. 134.75180 -0.48836478 +0.87204702 a 2.5771230 Node 105.98995 -0.80978296 -0.43914900 e 0.5816532 Incl. 1.91675 -0.32519441 -0.21606053 P 4.14 H 25.4 G 0.15 U 9 [...
Title: Suzaku and BeppoSAX X-ray Spectra of the Persistently Accreting Neutron-Star Binary 4U 1705-44Authors: Dacheng Lin (MIT, CESR), Ronald A. Remillard (MIT), Jeroen Homan (MIT) We present an analysis of the broad-band spectra of 4U~1705--44 obtained with Suzaku in 2006--2008 and by Beppo...
Science historian cracks "the Plato code"
The Greek philosopher Plato has been revered as a great thinker for millennia. It turns out, his writings are even more valuable than we have thought.
A science historian at The University of Manchester has cracked "The Plato Code&quo...
Williams College invites the public to the Milham Planetarium, located inside the Old Hopkins Observatory on the college campus. Astronomy students at the college will host free shows for the public at 7:30 p.m. on the following Friday evenings: Oct. 3, 10, 17, 24, 31; Nov. 7, 14, 21; Dec. 5; and Jan....
With the star ball banished, the sky's the limit now for the Gottlieb Planetarium.
A new 360-degree and 3-D projection system now operating in the funny-shaped building next to Union Station is hoped to bring back audiences and send them to the moon and beyond.
And the best part is that the system wa...
The western side of the park contains Sheshan Mountain itself as well as its best-known attractions: the Shanghai Astronomical Museum and the Sheshan Basilica. For 30 yuan ($4.40), tourists can take the 15-minute hike up to the top of the mountain and see these attractions up close. Originally fou...